This demonstration page uses our WeatherBlox Daily Observations layout. Learn more.

Left ArrowRight Arrow

39.92423, -83.80882

Hourly Observations for February 4, 2021

Temp ( °F °C ) Dew Point ( °F °C ) Humidity (%) Winds ( mph kmh ) Pressure ( in mb ) Visibility ( mi km ) Precip ( " mm )
12:03 am 00:03 Mostly Cloudy with Freezing Fog 9 -13 7 -14 92 92 Calm 30.16 1021 0 0 0.00 0.00
12:15 am 00:15 Cloudy with Freezing Fog 7 -14 5 -15 92 92 Calm 30.17 1022 1 1 0.00 0.00
12:28 am 00:28 Cloudy with Freezing Fog 7 -14 3 -16 85 85 Calm 30.16 1021 0 0 0.00 0.00
12:35 am 00:35 Cloudy with Freezing Fog 7 -14 5 -15 92 92 Calm 30.16 1021 0 0 0.00 0.00
12:56 am 00:56 Cloudy with Freezing Fog 6 -14.4 4 -15.6 91 91 SSE 3 6 30.11 1020 0 0 0.00 0.00
1:24 am 01:24 Cloudy with Freezing Fog 7 -14 3 -16 85 85 SSE 3 6 30.17 1022 1 1 0.00 0.00
1:33 am 01:33 Cloudy with Freezing Fog 7 -14 5 -15 92 92 SE 3 6 30.16 1021 0 0 0.00 0.00
1:46 am 01:46 Cloudy with Mist and Fog 7 -14 5 -15 92 92 ESE 5 7 30.16 1021 1 1 0.00 0.00
1:56 am 01:56 Cloudy with Mist and Fog 7 -13.9 5 -15 91 91 ESE 5 7 30.10 1019 1 1 0.00 0.00
2:04 am 02:04 Cloudy with Freezing Fog 7 -14 7 -14 100 100 ESE 3 6 30.16 1021 1 1 0.00 0.00
2:10 am 02:10 Cloudy with Mist and Fog 7 -14 7 -14 100 100 ESE 3 6 30.16 1021 1 2 0.00 0.00
2:13 am 02:13 Mostly Cloudy with Mist and Fog 9 -13 7 -14 92 92 Calm 30.15 1021 2 3 0.00 0.00
2:20 am 02:20 Partly Cloudy with Mist and Fog 9 -13 7 -14 92 92 Calm 30.15 1021 4 6 0.00 0.00
2:56 am 02:56 Clear with Mist and Fog 8 -13.3 7 -13.9 95 95 SE 3 6 30.09 1019 5 8 0.00 0.00
3:56 am 03:56 Clear 8 -13.3 7 -13.9 95 95 ESE 5 7 30.07 1018 7 11 0.00 0.00
4:56 am 04:56 Clear with Mist and Fog 14 -10 13 -10.6 95 95 SE 8 13 30.05 1018 5 8 0.00 0.00
5:56 am 05:56 Clear with Mist and Fog 15 -9.4 15 -9.4 100 100 ESE 7 11 30.06 1018 6 10 0.00 0.00
6:56 am 06:56 Clear 17 -8.3 17 -8.3 100 100 SE 7 11 30.07 1018 7 11 0.00 0.00
7:56 am 07:56 Sunny 18 -7.8 18 -7.8 100 100 SE 10 17 30.06 1018 7 11 0.00 0.00
8:56 am 08:56 Sunny 22 -5.6 22 -5.6 100 100 SSE 9 15 30.05 1018 9 14 0.00 0.00
9:56 am 09:56 Sunny 24 -4.4 24 -4.4 100 100 SSE 9 15 30.03 1017 10 16 0.00 0.00
10:56 am 10:56 Sunny 25 -3.9 25 -3.9 100 100 SE 13 20 29.98 1015 10 16 0.00 0.00
11:56 am 11:56 Sunny 30 -1.1 25 -3.9 82 82 SSE 10 17 29.96 1014 10 16 0.00 0.00
12:56 pm 12:56 Partly Cloudy 30 -1.1 25 -3.9 82 82 SE 13 20 29.88 1012 10 16 0.00 0.00
1:56 pm 13:56 Mostly Cloudy 32 0 25 -3.9 75 75 SSE 15 24 29.83 1010 10 16 0.00 0.00
2:56 pm 14:56 Mostly Cloudy 33 0.6 25 -3.9 72 72 SE 20 31 29.77 1008 10 16 0.00 0.00
3:56 pm 15:56 Cloudy with Light Rain 33 0.6 24 -4.4 70 70 SSE 13 20 29.73 1007 10 16 0.00 0.00
4:39 pm 16:39 Cloudy with Light Snow 34 1 25 -4 70 70 SSE 17 28 29.70 1006 8 13 0.00 0.00
4:56 pm 16:56 Windy with Snow Likely 33 0.6 27 -2.8 78 78 SSE 22 35 29.70 1006 3 4 0.00 0.00
5:02 pm 17:02 Windy with Snow Likely 32 0 28 -2 87 87 SSE 20 31 29.70 1006 1 2 0.00 0.00
5:13 pm 17:13 Cloudy with Light Snow 30 -1 30 -1 100 100 SSE 18 30 29.69 1005 2 3 0.00 0.00
5:25 pm 17:25 Cloudy with Light Snow 30 -1 30 -1 100 100 SSE 18 30 29.67 1005 3 4 0.00 0.00
5:28 pm 17:28 Windy with Snow Likely 30 -1 30 -1 100 100 SE 22 35 29.67 1005 4 6 0.00 0.00
5:36 pm 17:36 Cloudy with Light Freezing Rain 30 -1 30 -1 100 100 SE 21 33 29.66 1004 9 14 0.00 0.00
5:41 pm 17:41 Windy with Snow Likely 30 -1 30 -1 100 100 SE 20 31 29.65 1004 9 14 0.00 0.00
5:56 pm 17:56 Windy with Snow Likely 32 0 32 0 100 100 SE 21 33 29.62 1003 9 14 0.00 0.00
6:03 pm 18:03 Cloudy with Light Freezing Rain 32 0 30 -1 93 93 SE 16 26 29.62 1003 9 14 0.00 0.00
6:11 pm 18:11 Cloudy with Light Snow 32 0 32 0 100 100 SE 16 26 29.62 1003 9 14 0.00 0.00
6:56 pm 18:56 Cloudy with Light Snow 33 0.6 32 0 96 96 SE 17 28 29.60 1002 5 8 0.00 0.00
7:56 pm 19:56 Cloudy with Light Snow 34 1.1 33 0.6 97 97 SSE 15 24 29.56 1001 9 14 0.00 0.00
8:48 pm 20:48 Cloudy with Light Rain 36 2 34 1 93 93 S 18 30 29.53 1000 5 8 0.00 0.00
8:56 pm 20:56 Cloudy with Light Rain 34 1.1 33 0.6 97 97 S 15 24 29.53 1000 5 8 0.00 0.00
9:53 pm 21:53 Cloudy with Light Snow 34 1 34 1 100 100 S 17 28 29.53 1000 6 10 0.00 0.00
9:56 pm 21:56 Cloudy with Light Snow 34 1.1 34 1.1 100 100 S 15 24 29.51 999 5 8 0.00 0.00
10:33 pm 22:33 Cloudy with Light Snow 34 1 34 1 100 100 SSW 12 19 29.52 1000 7 11 0.00 0.00
10:56 pm 22:56 Cloudy with Light Rain 35 1.7 35 1.7 100 100 SSW 15 24 29.51 999 10 16 0.00 0.00
11:56 pm 23:56 Cloudy with Light Rain 36 2.2 36 2.2 100 100 WSW 18 30 29.51 999 7 11 0.00 0.00

Powered by AerisWeather